sat.trackr.live / text

‹ back to catalog

STARLINK-5972

NORAD 56362 · 2023-058AX

PAYLOAD ACTIVE UNKNOWN

§ Identity

Operator
Country
US
Launch date
2023-04-27
Launch site
AFWTR
Launch vehicle
Mass (kg)
RCS (m²)

Purposes: comms

External: N2YO · Heavens-Above · Gunter

§ Orbital elements

Epoch: 2026-09-20T22:45:57.769920Z

Period
93.91 min
Inclination
97.2844°
Eccentricity
0.0001602
Mean motion
15.33441483 rev/d
Perigee alt
464.5 km
Apogee alt
466.6 km
Semi-major
6,843.7 km
B*
1.4928e-4
RAAN
260.6962°
Arg perigee
91.1020°
Mean anomaly
269.0407°
Rev number
18,770

§ Raw data

STARLINK-59721 56362U 23058AX  26263.94858530  .00004747  00000+0  14928-3 0  99992 56362  97.2844 260.6962 0001602  91.1020 269.0407 15.33441483187708

JSON: /api/v1/satellites/56362 · /tle

For live sub-satellite position, see the globe view (requires WebGL).

§ Visibility from observer

Set your observer location to see the next 7 days of passes ≥ 10°. The values pass through the URL so the page stays shareable.

No JS? Fill the form by hand. The geolocation button needs JavaScript.